Time,TemperatureF,DewpointF,PressureIn,WindDirection,WindDirectionDegrees,WindSpeedMPH,WindSpeedGustMPH,Humidity,HourlyPrecipIn,Conditions,Clouds,dailyrainin,SoftwareType,DateUTC
2013-01-19 00:04:00,37.0,23.0,-100.00,South,175,16.0,26.0,55,-99.99,,,-99.99,,2013-01-19 05:04:00,
2013-01-19 00:12:00,37.0,23.0,-100.00,South,170,19.0,29.0,55,-99.99,,,-99.99,,2013-01-19 05:12:00,
2013-01-19 00:23:00,37.0,23.0,-100.00,South,175,19.0,27.0,55,-99.99,,,-99.99,,2013-01-19 05:23:00,
2013-01-19 00:33:00,37.0,23.0,-100.00,South,170,20.0,29.0,56,-99.99,,,-99.99,,2013-01-19 05:33:00,
2013-01-19 00:42:00,37.0,23.0,-100.00,South,175,17.0,27.0,57,-99.99,,,-99.99,,2013-01-19 05:42:00,
2013-01-19 00:52:00,36.0,23.0,-100.00,South,170,16.0,24.0,57,-99.99,,,-99.99,,2013-01-19 05:52:00,
2013-01-19 01:03:00,36.0,23.0,-100.00,SSE,165,19.0,24.0,58,-99.99,,,-99.99,,2013-01-19 06:03:00,
2013-01-19 01:12:00,37.0,23.0,-100.00,SSE,165,17.0,24.0,58,-99.99,,,-99.99,,2013-01-19 06:12:00,
2013-01-19 01:22:00,36.0,23.0,-100.00,South,175,17.0,24.0,58,-99.99,,,-99.99,,2013-01-19 06:22:00,
2013-01-19 01:33:00,36.0,23.0,-100.00,South,175,16.0,22.0,58,-99.99,,,-99.99,,2013-01-19 06:33:00,
2013-01-19 01:43:00,36.0,23.0,-100.00,SSE,165,15.0,21.0,58,-99.99,,,-99.99,,2013-01-19 06:43:00,
2013-01-19 01:52:00,37.0,24.0,-100.00,South,180,16.0,24.0,58,-99.99,,,-99.99,,2013-01-19 06:52:00,
2013-01-19 02:02:00,37.0,24.0,-100.00,South,170,19.0,25.0,57,-99.99,,,-99.99,,2013-01-19 07:02:00,
2013-01-19 02:12:00,38.0,24.0,-100.00,South,180,20.0,27.0,56,-99.99,,,-99.99,,2013-01-19 07:12:00,
2013-01-19 02:22:00,38.0,24.0,-100.00,South,170,17.0,29.0,56,-99.99,,,-99.99,,2013-01-19 07:22:00,
2013-01-19 02:33:00,38.0,24.0,-100.00,South,180,20.0,25.0,56,-99.99,,,-99.99,,2013-01-19 07:33:00,
2013-01-19 02:43:00,38.0,24.0,-100.00,South,180,18.0,25.0,56,-99.99,,,-99.99,,2013-01-19 07:43:00,
2013-01-19 02:52:00,38.0,24.0,-100.00,South,170,19.0,26.0,55,-99.99,,,-99.99,,2013-01-19 07:52:00,
2013-01-19 03:02:00,38.0,24.0,-100.00,South,180,18.0,27.0,55,-99.99,,,-99.99,,2013-01-19 08:02:00,
2013-01-19 03:12:00,38.0,24.0,-100.00,South,170,19.0,25.0,55,-99.99,,,-99.99,,2013-01-19 08:12:00,
2013-01-19 03:22:00,38.0,24.0,-100.00,South,180,18.0,27.0,55,-99.99,,,-99.99,,2013-01-19 08:22:00,
2013-01-19 03:32:00,38.0,24.0,-100.00,SSE,165,20.0,27.0,55,-99.99,,,-99.99,,2013-01-19 08:32:00,
2013-01-19 03:43:00,38.0,24.0,-100.00,South,180,19.0,27.0,56,-99.99,,,-99.99,,2013-01-19 08:43:00,
2013-01-19 03:52:00,38.0,24.0,-100.00,SSE,165,18.0,28.0,56,-99.99,,,-99.99,,2013-01-19 08:52:00,
2013-01-19 04:02:00,37.0,24.0,-100.00,SSE,160,17.0,24.0,56,-99.99,,,-99.99,,2013-01-19 09:02:00,
2013-01-19 04:12:00,37.0,24.0,-100.00,South,180,19.0,28.0,57,-99.99,,,-99.99,,2013-01-19 09:12:00,
2013-01-19 04:23:00,37.0,24.0,-100.00,SSE,165,20.0,28.0,57,-99.99,,,-99.99,,2013-01-19 09:23:00,
2013-01-19 04:33:00,37.0,24.0,-100.00,South,180,19.0,27.0,57,-99.99,,,-99.99,,2013-01-19 09:33:00,
2013-01-19 04:42:00,37.0,24.0,-100.00,South,170,18.0,27.0,57,-99.99,,,-99.99,,2013-01-19 09:42:00,
2013-01-19 04:52:00,37.0,24.0,-100.00,South,170,21.0,30.0,57,-99.99,,,-99.99,,2013-01-19 09:52:00,
2013-01-19 05:02:00,37.0,24.0,-100.00,South,175,19.0,27.0,57,-99.99,,,-99.99,,2013-01-19 10:02:00,
2013-01-19 05:12:00,37.0,24.0,-100.00,South,170,19.0,26.0,57,-99.99,,,-99.99,,2013-01-19 10:12:00,
2013-01-19 05:22:00,37.0,24.0,-100.00,SSE,165,19.0,27.0,57,-99.99,,,-99.99,,2013-01-19 10:22:00,
2013-01-19 05:32:00,37.0,24.0,-100.00,South,170,17.0,25.0,58,-99.99,,,-99.99,,2013-01-19 10:32:00,
2013-01-19 05:43:00,37.0,24.0,-100.00,South,175,18.0,24.0,58,-99.99,,,-99.99,,2013-01-19 10:43:00,
2013-01-19 05:52:00,37.0,24.0,-100.00,South,175,17.0,25.0,58,-99.99,,,-99.99,,2013-01-19 10:52:00,
2013-01-19 06:03:00,37.0,24.0,-100.00,South,175,16.0,25.0,58,-99.99,,,-99.99,,2013-01-19 11:03:00,
2013-01-19 06:12:00,37.0,24.0,-100.00,South,175,15.0,21.0,58,-99.99,,,-99.99,,2013-01-19 11:12:00,
2013-01-19 07:48:00,36.0,24.0,-100.00,South,170,13.0,19.0,60,-99.99,,,-99.99,,2013-01-19 12:48:00,
2013-01-19 07:53:00,36.0,24.0,-100.00,SSE,165,13.0,17.0,61,-99.99,,,-99.99,,2013-01-19 12:53:00,
2013-01-19 08:03:00,35.0,24.0,-100.00,SSE,165,12.0,15.0,62,-99.99,,,-99.99,,2013-01-19 13:03:00,
2013-01-19 08:12:00,35.0,24.0,-100.00,SSE,165,12.0,18.0,62,-99.99,,,-99.99,,2013-01-19 13:12:00,
2013-01-19 08:22:00,35.0,24.0,-100.00,SSE,165,12.0,17.0,62,-99.99,,,-99.99,,2013-01-19 13:22:00,
2013-01-19 08:33:00,36.0,24.0,-100.00,SSE,160,12.0,15.0,63,-99.99,,,-99.99,,2013-01-19 13:33:00,
2013-01-19 08:43:00,36.0,25.0,-100.00,SSE,160,11.0,16.0,62,-99.99,,,-99.99,,2013-01-19 13:43:00,
2013-01-19 08:53:00,36.0,25.0,-100.00,SSE,165,12.0,19.0,62,-99.99,,,-99.99,,2013-01-19 13:53:00,
2013-01-19 09:03:00,37.0,25.0,-100.00,SSE,160,13.0,17.0,61,-99.99,,,-99.99,,2013-01-19 14:03:00,
2013-01-19 09:12:00,37.0,25.0,-100.00,SSE,165,14.0,20.0,60,-99.99,,,-99.99,,2013-01-19 14:12:00,
2013-01-19 09:23:00,38.0,26.0,-100.00,South,170,14.0,19.0,60,-99.99,,,-99.99,,2013-01-19 14:23:00,
2013-01-19 09:34:00,39.0,26.0,-100.00,SSE,165,15.0,19.0,58,-99.99,,,-99.99,,2013-01-19 14:34:00,
2013-01-19 09:43:00,39.0,26.0,-100.00,South,175,15.0,22.0,58,-99.99,,,-99.99,,2013-01-19 14:43:00,
2013-01-19 09:53:00,40.0,26.0,-100.00,South,170,18.0,24.0,56,-99.99,,,-99.99,,2013-01-19 14:53:00,
2013-01-19 10:03:00,41.0,26.0,-100.00,South,175,14.0,21.0,55,-99.99,,,-99.99,,2013-01-19 15:03:00,
2013-01-19 10:13:00,41.0,26.0,-100.00,South,175,17.0,22.0,53,-99.99,,,-99.99,,2013-01-19 15:13:00,
2013-01-19 10:23:00,42.0,26.0,-100.00,South,170,16.0,26.0,52,-99.99,,,-99.99,,2013-01-19 15:23:00,
2013-01-19 10:33:00,42.0,26.0,-100.00,South,175,19.0,24.0,51,-99.99,,,-99.99,,2013-01-19 15:33:00,
2013-01-19 10:43:00,43.0,26.0,-100.00,South,170,17.0,25.0,50,-99.99,,,-99.99,,2013-01-19 15:43:00,
2013-01-19 10:53:00,43.0,26.0,-100.00,South,175,17.0,24.0,50,-99.99,,,-99.99,,2013-01-19 15:53:00,
2013-01-19 11:03:00,44.0,26.0,-100.00,South,175,19.0,25.0,49,-99.99,,,-99.99,,2013-01-19 16:03:00,
2013-01-19 11:13:00,44.0,26.0,-100.00,South,170,17.0,29.0,49,-99.99,,,-99.99,,2013-01-19 16:13:00,
2013-01-19 11:23:00,44.0,26.0,-100.00,South,185,19.0,23.0,48,-99.99,,,-99.99,,2013-01-19 16:23:00,
2013-01-19 11:33:00,45.0,27.0,-100.00,South,170,15.0,30.0,48,-99.99,,,-99.99,,2013-01-19 16:33:00,
2013-01-19 11:43:00,45.0,27.0,-100.00,South,175,17.0,25.0,47,-99.99,,,-99.99,,2013-01-19 16:43:00,
2013-01-19 11:53:00,45.0,26.0,-100.00,South,180,21.0,25.0,47,-99.99,,,-99.99,,2013-01-19 16:53:00,
2013-01-19 12:03:00,46.0,27.0,-100.00,South,180,17.0,26.0,47,-99.99,,,-99.99,,2013-01-19 17:03:00,
2013-01-19 12:20:00,46.0,27.0,-100.00,South,180,19.0,26.0,46,-99.99,,,-99.99,,2013-01-19 17:20:00,
2013-01-19 12:29:00,46.0,27.0,-100.00,South,170,23.0,30.0,46,-99.99,,,-99.99,,2013-01-19 17:29:00,
2013-01-19 12:36:00,46.0,27.0,-100.00,South,180,20.0,30.0,46,-99.99,,,-99.99,,2013-01-19 17:36:00,
2013-01-19 12:48:00,47.0,27.0,-100.00,South,170,22.0,29.0,46,-99.99,,,-99.99,,2013-01-19 17:48:00,
2013-01-19 12:53:00,47.0,27.0,-100.00,South,170,21.0,30.0,45,-99.99,,,-99.99,,2013-01-19 17:53:00,
2013-01-19 13:12:00,47.0,28.0,-100.00,South,170,21.0,27.0,46,-99.99,,,-99.99,,2013-01-19 18:12:00,
2013-01-19 13:36:00,48.0,28.0,-100.00,South,180,19.0,28.0,45,-99.99,,,-99.99,,2013-01-19 18:36:00,
2013-01-19 13:45:00,49.0,28.0,-100.00,South,170,21.0,28.0,45,-99.99,,,-99.99,,2013-01-19 18:45:00,
2013-01-19 13:55:00,49.0,28.0,-100.00,South,180,22.0,27.0,45,-99.99,,,-99.99,,2013-01-19 18:55:00,
2013-01-19 14:09:00,49.0,29.0,-100.00,South,175,21.0,31.0,45,-99.99,,,-99.99,,2013-01-19 19:09:00,
2013-01-19 14:20:00,49.0,29.0,-100.00,South,185,19.0,32.0,45,-99.99,,,-99.99,,2013-01-19 19:20:00,
2013-01-19 14:30:00,50.0,29.0,-100.00,SSE,165,20.0,30.0,45,-99.99,,,-99.99,,2013-01-19 19:30:00,
2013-01-19 14:40:00,49.0,29.0,-100.00,SSE,165,21.0,29.0,45,-99.99,,,-99.99,,2013-01-19 19:40:00,
2013-01-19 14:54:00,50.0,29.0,-100.00,South,175,26.0,31.0,45,-99.99,,,-99.99,,2013-01-19 19:54:00,
2013-01-19 15:10:00,50.0,29.0,-100.00,SSE,165,24.0,30.0,45,-99.99,,,-99.99,,2013-01-19 20:10:00,
2013-01-19 15:19:00,50.0,29.0,-100.00,South,175,23.0,31.0,44,-99.99,,,-99.99,,2013-01-19 20:19:00,
2013-01-19 15:25:00,50.0,29.0,-100.00,SSE,165,24.0,32.0,45,-99.99,,,-99.99,,2013-01-19 20:25:00,
2013-01-19 15:39:00,50.0,29.0,-100.00,South,175,24.0,32.0,45,-99.99,,,-99.99,,2013-01-19 20:39:00,
2013-01-19 15:54:00,50.0,29.0,-100.00,SSE,165,25.0,33.0,45,-99.99,,,-99.99,,2013-01-19 20:54:00,
2013-01-19 16:07:00,50.0,30.0,-100.00,South,170,19.0,31.0,45,-99.99,,,-99.99,,2013-01-19 21:07:00,
2013-01-19 16:14:00,50.0,30.0,-100.00,South,175,22.0,34.0,44,-99.99,,,-99.99,,2013-01-19 21:14:00,
2013-01-19 16:26:00,50.0,30.0,-100.00,SSE,165,21.0,29.0,44,-99.99,,,-99.99,,2013-01-19 21:26:00,
2013-01-19 16:45:00,51.0,30.0,-100.00,South,175,17.0,27.0,44,-99.99,,,-99.99,,2013-01-19 21:45:00,
2013-01-19 16:57:00,50.0,30.0,-100.00,South,180,18.0,24.0,45,-99.99,,,-99.99,,2013-01-19 21:57:00,
2013-01-19 17:15:00,50.0,29.0,-100.00,South,180,17.0,29.0,45,-99.99,,,-99.99,,2013-01-19 22:15:00,
2013-01-19 17:27:00,49.0,29.0,-100.00,SSE,165,16.0,22.0,47,-99.99,,,-99.99,,2013-01-19 22:27:00,
2013-01-19 17:35:00,48.0,30.0,-100.00,South,170,16.0,22.0,49,-99.99,,,-99.99,,2013-01-19 22:35:00,
2013-01-19 17:47:00,48.0,30.0,-100.00,SSE,165,16.0,22.0,49,-99.99,,,-99.99,,2013-01-19 22:47:00,
2013-01-19 17:55:00,48.0,30.0,-100.00,South,180,16.0,24.0,49,-99.99,,,-99.99,,2013-01-19 22:55:00,
2013-01-19 18:13:00,48.0,30.0,-100.00,South,175,14.0,22.0,49,-99.99,,,-99.99,,2013-01-19 23:13:00,
2013-01-19 18:25:00,48.0,30.0,-100.00,South,175,16.0,25.0,49,-99.99,,,-99.99,,2013-01-19 23:25:00,
2013-01-19 18:35:00,47.0,30.0,-100.00,South,175,15.0,24.0,49,-99.99,,,-99.99,,2013-01-19 23:35:00,
2013-01-19 18:45:00,47.0,29.0,-100.00,South,185,16.0,23.0,49,-99.99,,,-99.99,,2013-01-19 23:45:00,
2013-01-19 19:09:00,48.0,29.0,-100.00,South,175,12.0,22.0,48,-99.99,,,-99.99,,2013-01-20 00:09:00,
2013-01-19 19:25:00,47.0,29.0,-100.00,SSE,165,14.0,19.0,50,-99.99,,,-99.99,,2013-01-20 00:25:00,
2013-01-19 19:35:00,46.0,29.0,-100.00,South,170,13.0,22.0,50,-99.99,,,-99.99,,2013-01-20 00:35:00,
2013-01-19 19:46:00,46.0,29.0,-100.00,South,170,17.0,21.0,50,-99.99,,,-99.99,,2013-01-20 00:46:00,
2013-01-19 19:54:00,46.0,29.0,-100.00,South,175,16.0,24.0,50,-99.99,,,-99.99,,2013-01-20 00:54:00,
2013-01-19 20:04:00,46.0,29.0,-100.00,South,180,14.0,23.0,50,-99.99,,,-99.99,,2013-01-20 01:04:00,
2013-01-19 20:20:00,46.0,28.0,-100.00,South,170,17.0,24.0,50,-99.99,,,-99.99,,2013-01-20 01:20:00,
2013-01-19 20:27:00,45.0,28.0,-100.00,South,175,14.0,22.0,51,-99.99,,,-99.99,,2013-01-20 01:27:00,
2013-01-19 20:48:00,45.0,28.0,-100.00,South,175,14.0,22.0,52,-99.99,,,-99.99,,2013-01-20 01:48:00,
2013-01-19 20:58:00,45.0,28.0,-100.00,South,180,16.0,19.0,52,-99.99,,,-99.99,,2013-01-20 01:58:00,
2013-01-19 21:08:00,44.0,28.0,-100.00,South,175,14.0,21.0,53,-99.99,,,-99.99,,2013-01-20 02:08:00,
2013-01-19 21:15:00,44.0,28.0,-100.00,South,175,14.0,21.0,53,-99.99,,,-99.99,,2013-01-20 02:15:00,
2013-01-19 21:26:00,44.0,28.0,-100.00,South,175,16.0,22.0,53,-99.99,,,-99.99,,2013-01-20 02:26:00,
2013-01-19 21:36:00,44.0,29.0,-100.00,South,180,17.0,23.0,53,-99.99,,,-99.99,,2013-01-20 02:36:00,
2013-01-19 21:44:00,44.0,29.0,-100.00,South,175,17.0,26.0,53,-99.99,,,-99.99,,2013-01-20 02:44:00,
2013-01-19 21:55:00,44.0,29.0,-100.00,South,170,17.0,24.0,54,-99.99,,,-99.99,,2013-01-20 02:55:00,
2013-01-19 22:08:00,44.0,29.0,-100.00,South,175,17.0,25.0,54,-99.99,,,-99.99,,2013-01-20 03:08:00,
2013-01-19 22:15:00,45.0,29.0,-100.00,South,185,17.0,30.0,54,-99.99,,,-99.99,,2013-01-20 03:15:00,
2013-01-19 22:25:00,45.0,29.0,-100.00,South,180,19.0,28.0,54,-99.99,,,-99.99,,2013-01-20 03:25:00,
2013-01-19 22:39:00,45.0,29.0,-100.00,South,175,21.0,31.0,54,-99.99,,,-99.99,,2013-01-20 03:39:00,
2013-01-19 22:45:00,45.0,30.0,-100.00,South,185,21.0,32.0,54,-99.99,,,-99.99,,2013-01-20 03:45:00,
2013-01-19 23:05:00,45.0,30.0,-100.00,South,190,21.0,30.0,55,-99.99,,,-99.99,,2013-01-20 04:05:00,
2013-01-19 23:15:00,45.0,30.0,-100.00,South,185,18.0,27.0,56,-99.99,,,-99.99,,2013-01-20 04:15:00,
2013-01-19 23:26:00,45.0,31.0,-100.00,South,185,22.0,29.0,57,-99.99,,,-99.99,,2013-01-20 04:26:00,
2013-01-19 23:44:00,45.0,32.0,-100.00,SSW,200,26.0,35.0,58,-99.99,,,-99.99,,2013-01-20 04:44:00,
2013-01-19 23:54:00,46.0,32.0,-100.00,South,185,25.0,37.0,59,-99.99,,,-99.99,,2013-01-20 04:54:00,